Time,TemperatureF,DewpointF,PressureIn,WindDirection,WindDirectionDegrees,WindSpeedMPH,WindSpeedGustMPH,Humidity,HourlyPrecipIn,Conditions,Clouds,dailyrainin,SolarRadiationWatts/m^2,SoftwareType,DateUTC
2013-02-26 00:01:00,29.0,28.0,-100.00,SSW,202,1.0,3.0,97,0.00,,,0.11,0.000000,,2013-02-26 07:01:00,
2013-02-26 00:11:00,29.0,28.0,-100.00,SSW,202,1.0,3.0,97,0.00,,,0.11,0.000000,,2013-02-26 07:11:00,
2013-02-26 00:32:00,29.0,28.0,-100.00,South,172,1.0,3.0,96,0.00,,,-99.99,0.000000,,2013-02-26 07:32:00,
2013-02-26 00:42:00,29.0,28.0,-100.00,South,172,1.0,3.0,96,0.00,,,-99.99,0.000000,,2013-02-26 07:42:00,
2013-02-26 00:52:00,29.0,28.0,-100.00,South,172,1.0,3.0,96,0.00,,,-99.99,0.000000,,2013-02-26 07:52:00,
2013-02-26 01:01:00,29.0,28.0,-100.00,South,172,1.0,3.0,96,0.00,,,-99.99,0.000000,,2013-02-26 08:01:00,
2013-02-26 01:11:00,29.0,28.0,-100.00,South,172,1.0,3.0,96,0.00,,,-99.99,0.000000,,2013-02-26 08:11:00,
2013-02-26 01:32:00,29.0,28.0,-100.00,SSE,167,1.0,3.0,97,0.00,,,0.11,0.000000,,2013-02-26 08:32:00,
2013-02-26 01:42:00,29.0,28.0,-100.00,SSE,167,1.0,3.0,97,0.00,,,0.11,0.000000,,2013-02-26 08:42:00,
2013-02-26 01:52:00,29.0,28.0,-100.00,SSE,167,1.0,3.0,97,0.00,,,0.11,0.000000,,2013-02-26 08:52:00,
2013-02-26 02:01:00,29.0,28.0,-100.00,SSE,167,1.0,3.0,97,0.00,,,0.11,0.000000,,2013-02-26 09:01:00,
2013-02-26 02:11:00,29.0,28.0,-100.00,SSE,167,1.0,3.0,97,0.00,,,0.11,0.000000,,2013-02-26 09:11:00,
2013-02-26 02:43:00,29.0,28.0,-100.00,East,99,2.0,3.0,97,0.00,,,0.11,0.000000,,2013-02-26 09:43:00,
2013-02-26 02:52:00,29.0,28.0,-100.00,East,99,2.0,3.0,97,0.00,,,0.11,0.000000,,2013-02-26 09:52:00,
2013-02-26 03:01:00,29.0,28.0,-100.00,East,99,2.0,3.0,97,0.00,,,0.11,0.000000,,2013-02-26 10:01:00,
2013-02-26 03:11:00,29.0,28.0,-100.00,East,99,2.0,3.0,97,0.00,,,0.11,0.000000,,2013-02-26 10:11:00,
2013-02-26 03:32:00,29.0,28.0,-100.00,SSW,205,2.0,3.0,97,0.00,,,0.11,0.000000,,2013-02-26 10:32:00,
2013-02-26 03:42:00,29.0,28.0,-100.00,SSW,205,2.0,3.0,97,0.00,,,0.11,0.000000,,2013-02-26 10:42:00,
2013-02-26 03:52:00,29.0,28.0,-100.00,SSW,205,2.0,3.0,97,0.00,,,0.11,0.000000,,2013-02-26 10:52:00,
2013-02-26 04:01:00,29.0,28.0,-100.00,SSW,205,2.0,3.0,97,0.00,,,0.11,0.000000,,2013-02-26 11:01:00,
2013-02-26 04:11:00,29.0,28.0,-100.00,SSW,205,2.0,3.0,97,0.00,,,0.11,0.000000,,2013-02-26 11:11:00,
2013-02-26 04:32:00,29.0,28.0,-100.00,SE,137,2.0,3.0,97,0.00,,,0.11,0.000000,,2013-02-26 11:32:00,
2013-02-26 04:42:00,29.0,28.0,-100.00,SE,137,2.0,3.0,97,0.00,,,0.11,0.000000,,2013-02-26 11:42:00,
2013-02-26 04:52:00,29.0,28.0,-100.00,SE,137,2.0,3.0,97,0.00,,,0.11,0.000000,,2013-02-26 11:52:00,
2013-02-26 05:01:00,29.0,28.0,-100.00,SE,137,2.0,3.0,97,0.00,,,0.11,0.000000,,2013-02-26 12:01:00,
2013-02-26 05:11:00,29.0,28.0,-100.00,SE,137,2.0,3.0,97,0.00,,,0.11,0.000000,,2013-02-26 12:11:00,
2013-02-26 05:32:00,29.0,28.0,-100.00,SSE,164,1.0,3.0,97,0.01,,,0.12,0.000000,,2013-02-26 12:32:00,
2013-02-26 05:42:00,29.0,28.0,-100.00,SSE,164,1.0,3.0,97,0.01,,,0.12,0.000000,,2013-02-26 12:42:00,
2013-02-26 05:53:00,29.0,28.0,-100.00,SSE,164,1.0,3.0,97,0.01,,,0.12,0.000000,,2013-02-26 12:53:00,
2013-02-26 06:01:00,29.0,28.0,-100.00,SSE,164,1.0,3.0,97,0.01,,,0.12,0.000000,,2013-02-26 13:01:00,
2013-02-26 06:11:00,29.0,28.0,-100.00,SSE,164,1.0,3.0,97,0.01,,,0.12,0.000000,,2013-02-26 13:11:00,
2013-02-26 06:42:00,29.0,28.0,-100.00,SSE,151,2.0,4.0,96,0.01,,,0.13,0.000000,,2013-02-26 13:42:00,
2013-02-26 06:52:00,29.0,28.0,-100.00,SSE,151,2.0,4.0,96,0.01,,,0.13,0.000000,,2013-02-26 13:52:00,
2013-02-26 07:01:00,29.0,28.0,-100.00,SSE,151,2.0,4.0,96,0.01,,,0.13,0.000000,,2013-02-26 14:01:00,
2013-02-26 07:11:00,29.0,28.0,-100.00,SSE,151,2.0,4.0,96,0.01,,,0.13,0.000000,,2013-02-26 14:11:00,
2013-02-26 07:32:00,29.0,27.0,-100.00,ESE,117,3.0,5.0,93,0.00,,,0.13,0.000000,,2013-02-26 14:32:00,
2013-02-26 07:42:00,29.0,27.0,-100.00,ESE,117,3.0,5.0,93,0.00,,,0.13,0.000000,,2013-02-26 14:42:00,
2013-02-26 07:52:00,29.0,27.0,-100.00,ESE,117,3.0,5.0,93,0.00,,,0.13,0.000000,,2013-02-26 14:52:00,
2013-02-26 08:01:00,29.0,27.0,-100.00,ESE,117,3.0,5.0,93,0.00,,,0.13,0.000000,,2013-02-26 15:01:00,
2013-02-26 08:11:00,29.0,27.0,-100.00,ESE,117,3.0,5.0,93,0.00,,,0.13,0.000000,,2013-02-26 15:11:00,
2013-02-26 08:32:00,29.0,27.0,-100.00,SE,130,1.0,5.0,93,0.00,,,0.13,3.000000,,2013-02-26 15:32:00,
2013-02-26 08:42:00,29.0,27.0,-100.00,SE,130,1.0,5.0,93,0.00,,,0.13,3.000000,,2013-02-26 15:42:00,
2013-02-26 08:52:00,29.0,27.0,-100.00,SE,130,1.0,5.0,93,0.00,,,0.13,3.000000,,2013-02-26 15:52:00,
2013-02-26 09:01:00,29.0,27.0,-100.00,SE,130,1.0,5.0,93,0.00,,,0.13,3.000000,,2013-02-26 16:01:00,
2013-02-26 09:11:00,29.0,27.0,-100.00,SE,130,1.0,5.0,93,0.00,,,0.13,3.000000,,2013-02-26 16:11:00,
2013-02-26 09:32:00,32.0,27.0,-100.00,SW,229,2.0,5.0,83,0.00,,,0.13,17.000000,,2013-02-26 16:32:00,
2013-02-26 09:42:00,32.0,27.0,-100.00,SW,229,2.0,5.0,83,0.00,,,0.13,17.000000,,2013-02-26 16:42:00,
2013-02-26 09:52:00,32.0,27.0,-100.00,SW,229,2.0,5.0,83,0.00,,,0.13,17.000000,,2013-02-26 16:52:00,
2013-02-26 10:01:00,32.0,27.0,-100.00,SW,229,2.0,5.0,83,0.00,,,0.13,17.000000,,2013-02-26 17:01:00,
2013-02-26 10:11:00,32.0,27.0,-100.00,SW,229,2.0,5.0,83,0.00,,,0.13,17.000000,,2013-02-26 17:11:00,
2013-02-26 10:12:00,33.0,25.0,-100.00,WSW,249,8.0,16.0,72,0.00,,,0.11,31.000000,,2013-02-26 17:12:00,
2013-02-26 10:32:00,33.0,25.0,-100.00,WSW,249,8.0,16.0,72,0.00,,,0.11,31.000000,,2013-02-26 17:32:00,
2013-02-26 10:42:00,33.0,25.0,-100.00,WSW,249,8.0,16.0,72,0.00,,,0.11,31.000000,,2013-02-26 17:42:00,
2013-02-26 10:52:00,33.0,25.0,-100.00,WSW,249,8.0,16.0,72,0.00,,,0.11,31.000000,,2013-02-26 17:52:00,
2013-02-26 11:01:00,33.0,25.0,-100.00,WSW,249,8.0,16.0,72,0.00,,,0.11,31.000000,,2013-02-26 18:01:00,
2013-02-26 11:32:00,34.0,25.0,-100.00,SW,223,5.0,14.0,69,0.00,,,0.11,64.000000,,2013-02-26 18:32:00,
2013-02-26 11:42:00,34.0,25.0,-100.00,SW,223,5.0,14.0,69,0.00,,,0.11,64.000000,,2013-02-26 18:42:00,
2013-02-26 11:52:00,34.0,25.0,-100.00,SW,223,5.0,14.0,69,0.00,,,0.11,64.000000,,2013-02-26 18:52:00,
2013-02-26 12:01:00,34.0,25.0,-100.00,SW,223,5.0,14.0,69,0.00,,,0.11,64.000000,,2013-02-26 19:01:00,
2013-02-26 12:11:00,34.0,25.0,-100.00,SW,223,5.0,14.0,69,0.00,,,0.11,64.000000,,2013-02-26 19:11:00,
2013-02-26 12:42:00,35.0,24.0,-100.00,SW,224,6.0,12.0,64,0.00,,,0.10,75.000000,,2013-02-26 19:42:00,
2013-02-26 12:52:00,35.0,24.0,-100.00,SW,224,6.0,12.0,64,0.00,,,0.10,75.000000,,2013-02-26 19:52:00,
2013-02-26 13:01:00,35.0,24.0,-100.00,SW,224,6.0,12.0,64,0.00,,,0.10,75.000000,,2013-02-26 20:01:00,
2013-02-26 13:11:00,35.0,24.0,-100.00,SW,224,6.0,12.0,64,0.00,,,0.10,75.000000,,2013-02-26 20:11:00,
2013-02-26 15:42:00,35.0,26.0,-100.00,SSW,206,3.0,10.0,69,-99.99,,,0.08,207.000000,,2013-02-26 22:42:00,
2013-02-26 15:52:00,35.0,26.0,-100.00,SSW,206,3.0,10.0,69,-99.99,,,0.08,207.000000,,2013-02-26 22:52:00,
2013-02-26 16:01:00,35.0,26.0,-100.00,SSW,206,3.0,10.0,69,-99.99,,,0.08,207.000000,,2013-02-26 23:01:00,
2013-02-26 16:11:00,35.0,26.0,-100.00,SSW,206,3.0,10.0,69,-99.99,,,0.08,207.000000,,2013-02-26 23:11:00,
2013-02-26 16:32:00,35.0,26.0,-100.00,SW,219,5.0,17.0,69,0.00,,,0.08,163.000000,,2013-02-26 23:32:00,
2013-02-26 16:42:00,35.0,26.0,-100.00,SW,219,5.0,17.0,69,0.00,,,0.08,163.000000,,2013-02-26 23:42:00,
2013-02-26 16:52:00,35.0,26.0,-100.00,SW,219,5.0,17.0,69,0.00,,,0.08,163.000000,,2013-02-26 23:52:00,
2013-02-26 17:01:00,35.0,26.0,-100.00,SW,219,5.0,17.0,69,0.00,,,0.08,163.000000,,2013-02-27 00:01:00,
2013-02-26 17:11:00,35.0,26.0,-100.00,SW,219,5.0,17.0,69,0.00,,,0.08,163.000000,,2013-02-27 00:11:00,
2013-02-26 17:42:00,35.0,24.0,-100.00,WSW,249,5.0,9.0,65,0.00,,,0.08,101.000000,,2013-02-27 00:42:00,
2013-02-26 17:52:00,35.0,24.0,-100.00,WSW,249,5.0,9.0,65,0.00,,,0.08,101.000000,,2013-02-27 00:52:00,
2013-02-26 18:01:00,35.0,24.0,-100.00,WSW,249,5.0,9.0,65,0.00,,,0.08,101.000000,,2013-02-27 01:01:00,
2013-02-26 18:11:00,35.0,24.0,-100.00,WSW,249,5.0,9.0,65,0.00,,,0.08,101.000000,,2013-02-27 01:11:00,
2013-02-26 18:12:00,31.0,27.0,-100.00,East,96,1.0,7.0,86,0.00,,,0.06,31.000000,,2013-02-27 01:12:00,
2013-02-26 18:32:00,31.0,27.0,-100.00,East,96,1.0,7.0,86,0.00,,,0.06,31.000000,,2013-02-27 01:32:00,
2013-02-26 18:42:00,31.0,27.0,-100.00,East,96,1.0,7.0,86,0.00,,,0.06,31.000000,,2013-02-27 01:42:00,
2013-02-26 18:52:00,31.0,27.0,-100.00,East,96,1.0,7.0,86,0.00,,,0.06,31.000000,,2013-02-27 01:52:00,
2013-02-26 19:01:00,31.0,27.0,-100.00,East,96,1.0,7.0,86,0.00,,,0.06,31.000000,,2013-02-27 02:01:00,
2013-02-26 19:42:00,28.0,26.0,-100.00,ESE,103,1.0,5.0,93,0.00,,,0.06,1.000000,,2013-02-27 02:42:00,
2013-02-26 19:52:00,28.0,26.0,-100.00,ESE,103,1.0,5.0,93,0.00,,,0.06,1.000000,,2013-02-27 02:52:00,
2013-02-26 20:01:00,28.0,26.0,-100.00,ESE,103,1.0,5.0,93,0.00,,,0.06,1.000000,,2013-02-27 03:01:00,
2013-02-26 20:11:00,28.0,26.0,-100.00,ESE,103,1.0,5.0,93,0.00,,,0.06,1.000000,,2013-02-27 03:11:00,
2013-02-26 20:32:00,28.0,24.0,-100.00,SW,218,1.0,4.0,85,0.00,,,0.02,0.000000,,2013-02-27 03:32:00,
2013-02-26 20:42:00,28.0,24.0,-100.00,SW,218,1.0,4.0,85,0.00,,,0.02,0.000000,,2013-02-27 03:42:00,
2013-02-26 20:52:00,28.0,24.0,-100.00,SW,218,1.0,4.0,85,0.00,,,0.02,0.000000,,2013-02-27 03:52:00,
2013-02-26 21:01:00,28.0,24.0,-100.00,SW,218,1.0,4.0,85,0.00,,,0.02,0.000000,,2013-02-27 04:01:00,
2013-02-26 21:11:00,28.0,24.0,-100.00,SW,218,1.0,4.0,85,0.00,,,0.02,0.000000,,2013-02-27 04:11:00,
2013-02-26 21:32:00,29.0,25.0,-100.00,ESE,106,2.0,4.0,86,0.00,,,0.02,0.000000,,2013-02-27 04:32:00,
2013-02-26 21:42:00,29.0,25.0,-100.00,ESE,106,2.0,4.0,86,0.00,,,0.02,0.000000,,2013-02-27 04:42:00,
2013-02-26 21:52:00,29.0,25.0,-100.00,ESE,106,2.0,4.0,86,0.00,,,0.02,0.000000,,2013-02-27 04:52:00,
2013-02-26 22:01:00,29.0,25.0,-100.00,ESE,106,2.0,4.0,86,0.00,,,0.02,0.000000,,2013-02-27 05:01:00,
2013-02-26 22:11:00,29.0,25.0,-100.00,ESE,106,2.0,4.0,86,0.00,,,0.02,0.000000,,2013-02-27 05:11:00,
2013-02-26 22:32:00,28.0,25.0,-100.00,SSE,155,0.0,5.0,89,0.00,,,0.02,0.000000,,2013-02-27 05:32:00,
2013-02-26 22:42:00,28.0,25.0,-100.00,SSE,155,0.0,5.0,89,0.00,,,0.02,0.000000,,2013-02-27 05:42:00,
2013-02-26 22:52:00,28.0,25.0,-100.00,SSE,155,0.0,5.0,89,0.00,,,0.02,0.000000,,2013-02-27 05:52:00,
2013-02-26 23:02:00,28.0,25.0,-100.00,SSE,155,0.0,5.0,89,0.00,,,0.02,0.000000,,2013-02-27 06:02:00,
2013-02-26 23:11:00,28.0,25.0,-100.00,SSE,155,0.0,5.0,89,0.00,,,0.02,0.000000,,2013-02-27 06:11:00,
2013-02-26 23:33:00,28.0,25.0,-100.00,SSE,153,0.0,3.0,89,0.00,,,0.02,0.000000,,2013-02-27 06:33:00,
2013-02-26 23:42:00,28.0,25.0,-100.00,SSE,153,0.0,3.0,89,0.00,,,0.02,0.000000,,2013-02-27 06:42:00,
2013-02-26 23:52:00,28.0,25.0,-100.00,SSE,153,0.0,3.0,89,0.00,,,0.02,0.000000,,2013-02-27 06:52:00,